Location: Eimen
(51.8766°N, 9.7806°E)
Time: 15:09:46
(UTC+00:00)

Meteor 1-28 Rocket - Pass Details

Date: 23 May 2024
Orbit: 474 x 490 km, 97.5° (Epoch: 12 June)

Event Time Altitude Azimuth Distance (km) Brightness Sun altitude
Exits shadow 02:00:16 - 174° (S) 2,039 5.8 -9.3°
Reaches altitude 10° 02:01:10 10° 176° (S) 1,657 5.3 -9.2°
Maximum altitude 02:04:42 62° 258° (WSW) 547 3.1 -8.8°
Drops below altitude 10° 02:08:15 10° 340° (NNW) 1,663 6.2 -8.5°
Sets 02:10:20 0° 344° (NNW) 2,546 7.2 -8.3°
